Flag for Central African Republic Weather past 2 weeks in Bambari, Central African Republic

Now
75 °F

Partly sunny.


Feels Like: 77 °F
Forecast: 68 / 99 °F
Wind: No wind

Location: Bangui Airport

Current Time: Dec 21, 2014 at 9:45:36 AM

Latest Report: Dec 21, 2014 at 9:00 AM


Visibility: 4 mi

Pressure: 29.92 "Hg

Humidity: 69%

Dew point: 64 °F

Location of BambariLocation

Historic Weather in Bambari — Graph

°F

Bambari temperature yesterday

Maximum temperature yesterday: 91 °F (at 2:00 PM)
Minimum temperature yesterday: 63 °F (at 6:00 AM)
Average temperature yesterday: 77 °F

Past Weeks' High & Low Weather Summary

 TemperatureHumidityPressure
High91 °F (Dec 10, 2:00 PM)100% (Dec 7, 12:00 AM)29.95 "Hg (Dec 7, 12:00 AM)
Low63 °F (Dec 20, 6:00 AM)30% (Dec 20, 3:00 PM)29.74 "Hg (Dec 6, 3:00 PM)
Average78 °F82%29.86 "Hg
* Reported Dec 6 8:00 AM — Dec 21 8:00 AM, Bambari, Weather by CustomWeather, © 2014

Note: Actual official high and low records may vary slightly from our data, if they occured in-between our weather recording intervals... More about our weather records

Advertising

Bambari weather history for previous 24 hours

 ConditionsComfort  
Time TempWeatherWind HumidityBarometerVisibility
8:00 AM
Dec 21
68 °FPartly sunny.2 mph88%29.92 "Hg4 mi
7:00 AM64 °FFog.2 mph94%29.92 "Hg2 mi
6:00 AM63 °FScattered clouds.No wind94%29.89 "Hg4 mi
5:00 AM63 °FClear.No wind100%29.89 "Hg10 mi
4:00 AM64 °FClear.3 mph94%29.89 "Hg10 mi
3:00 AM64 °FClear.3 mph94%29.86 "Hg10 mi
2:00 AM66 °FClear.No wind94%29.86 "Hg10 mi
1:00 AM66 °FClear.3 mph94%29.89 "Hg10 mi
12:00 AM66 °FClear.3 mph94%29.89 "Hg4 mi
11:00 PM
Dec 20
68 °FClear.1 mph94%29.92 "Hg4 mi
10:00 PM70 °FClear.2 mph88%29.89 "Hg2 mi
9:00 PM72 °FClear.No wind88%29.89 "Hg2 mi
8:00 PM73 °FClear.No wind78%29.86 "Hg2 mi
7:00 PM77 °FClear.No wind69%29.86 "Hg2 mi
6:00 PM79 °FClear.5 mph61%29.83 "Hg2 mi
5:00 PM86 °FSunny.No wind52%29.80 "Hg10 mi
4:00 PM90 °FSunny.5 mph36%29.80 "Hg10 mi
3:00 PM91 °FSunny.7 mph30%29.80 "Hg10 mi
2:00 PM91 °FPassing clouds.7 mph32%29.83 "HgN/A
1:00 PM90 °FPassing clouds.7 mph31%29.86 "HgN/A
12:00 PM90 °FPassing clouds.6 mph31%29.89 "HgN/A
11:00 AM86 °FPassing clouds.6 mph35%29.92 "HgN/A
10:00 AM82 °FScattered clouds.5 mph37%29.95 "Hg5 mi
9:00 AM81 °FFog.1 mph62%29.95 "Hg2 mi
Weather by CustomWeather, © 2014

See weather overviewHow to use our weather pages